User: anonymous   Login
Location: Unspecified
(0.0000°N, 0.0000°E)
Time: 00:13:52
(UTC+00:00)
Language:

SBSS (USA 216) - Orbit

View from above orbital plane
View from above orbital plane
View from above satellite
View from above satellite

Ground track
Ground track

The orbit data is extracted from the following two-line orbital elements,

1 37168U 10048A   18266.83307032 0.00000080  00000-0  10224-4 0    01
2 37168  97.8284 127.6980 0001000  12.7786 347.2212 14.81480684    05
Epoch (UTC): 23 September 2018 19:59:37
Eccentricity: 0.0001000
inclination: 97.8284°
perigee height: 624 km
apogee height: 625 km
right ascension of ascending node: 127.6980°
argument of perigee: 12.7786°
revolutions per day: 14.81480684
mean anomaly at epoch: 347.2212°
orbit number at epoch: 0

The dashed part of the orbit path shows where the satellite is in the earth's shadow,  

DLR